This demonstration page uses our WeatherBlox Daily Observations layout. Learn more.

39.29038, -76.61219

Hourly Observations for December 2, 2017

Temp ( °F °C ) Dew Point ( °F °C ) Humidity (%) Winds ( mph kmh ) Pressure ( in mb ) Visibility ( mi km ) Precip ( " mm )
12:54 am 00:54 undefined 43 6.1 32 0 65 65 undefined N/A 30.27 1025 N/A 0 0
1:54 am 01:54 undefined 44 6.7 32 0 63 63 undefined N/A 30.27 1025 N/A 0 0
2:54 am 02:54 undefined 43 6.1 32 0 65 65 undefined N/A 30.3 1026 N/A 0 0
3:54 am 03:54 undefined 43 6.1 32 0 65 65 undefined N/A 30.27 1025 N/A 0 0
4:54 am 04:54 undefined 41 5 32 0 70 70 undefined N/A 30.27 1025 N/A 0 0
5:54 am 05:54 undefined 40 4.4 32 0 73 73 undefined N/A 30.27 1025 N/A 0 0
6:54 am 06:54 undefined 39 3.9 32 0 76 76 undefined N/A 30.27 1025 N/A 0 0
7:54 am 07:54 undefined 40 4.4 31 -0.6 70 70 undefined N/A 30.3 1026 N/A 0 0
8:54 am 08:54 undefined 43 6.1 32 0 65 65 undefined N/A 30.3 1026 N/A 0 0
9:54 am 09:54 undefined 46 7.8 34 1.1 63 63 undefined N/A 30.3 1026 N/A 0 0
10:54 am 10:54 undefined 46 7.8 34 1.1 63 63 undefined N/A 30.27 1025 N/A 0 0
11:54 am 11:54 undefined 47 8.3 36 2.2 66 66 undefined N/A 30.24 1024 N/A 0 0
12:54 pm 12:54 undefined 48 8.9 37 2.8 66 66 undefined N/A 30.24 1024 N/A 0 0
1:54 pm 13:54 undefined 49 9.4 37 2.8 64 64 undefined N/A 30.21 1023 N/A 0 0
2:54 pm 14:54 undefined 50 10 39 3.9 66 66 undefined N/A 30.21 1023 N/A 0 0
3:54 pm 15:54 undefined 49 9.4 38 3.3 66 66 undefined N/A 30.21 1023 N/A 0 0
4:54 pm 16:54 undefined 48 8.9 37 2.8 66 66 undefined N/A 30.21 1023 N/A 0 0
5:54 pm 17:54 undefined 48 8.9 36 2.2 63 63 undefined N/A 30.21 1023 N/A 0 0
6:54 pm 18:54 undefined 47 8.3 37 2.8 69 69 undefined N/A 30.21 1023 N/A 0 0
7:54 pm 19:54 undefined 46 7.8 38 3.3 73 73 undefined N/A 30.21 1023 N/A 0 0
8:54 pm 20:54 undefined 46 7.8 38 3.3 73 73 undefined N/A 30.21 1023 N/A 0 0
9:54 pm 21:54 undefined 45 7.2 37 2.8 74 74 undefined N/A 30.21 1023 N/A 0 0
10:54 pm 22:54 undefined 44 6.7 37 2.8 76 76 undefined N/A 30.21 1023 N/A 0 0
11:54 pm 23:54 undefined 44 6.7 37 2.8 76 76 undefined N/A 30.18 1022 N/A 0 0

Powered by AerisWeather